Location: Newark
(52.3500°N, 175.9667°E)
Time: 10:12:28
(UTC+00:00)

Transit 4A - Pass Details

Date: 25 April 2021
Orbit: 870 x 974 km, 66.8° (Epoch: 07 May)

Event Time Altitude Azimuth Distance (km) Brightness Sun altitude
Rises 15:34:59 0° 305° (NW) 3,564 10.8 -11.3°
Reaches altitude 10° 15:38:12 10° 321° (NW) 2,601 10.3 -11.0°
Maximum altitude 15:42:42 21° 10° (N) 1,893 10.2 -10.4°
Drops below altitude 10° 15:47:08 10° 59° (ENE) 2,552 11.8 -9.9°
Sets 15:50:15 0° 75° (ENE) 3,478 12.3 -9.5°
